EW6584 Weather Reports


Display with metric or nautical units.
time (UTC)temp
F
wind
direction
speed
MPH
gust
MPH
rain 1hr
in
rain 24hr
in
rain mn
in
humidity
%
barometer
mb
20260510220032 65 201 2.0 8.0 0.00 0.00 0.00 60 1019.3
20260510214541 63 263 1.0 4.0 0.00 0.00 0.00 63 1019.1
20260510213053 63 267 0.0 3.0 0.00 0.00 0.00 61 1019.2
20260510211503 63 249 2.0 4.0 0.00 0.00 0.00 61 1019.1
20260510210021 63 201 0.0 9.0 0.00 0.00 0.00 63 1019.2
20260510204531 64 272 1.0 4.0 0.00 0.00 0.00 63 1019.1
20260510203046 62 236 3.0 7.0 0.00 0.00 0.00 66 1019.1
20260510201545 61 300 3.0 7.0 0.00 0.00 0.00 69 1019.1
20260510200051 60 218 2.0 6.0 0.00 0.00 0.00 70 1019.1
20260510194503 60 262 1.0 6.0 0.00 0.00 0.00 72 1018.8
20260510193017 59 87 3.0 8.0 0.00 0.00 0.00 77 1018.7
20260510191530 58 204 2.0 6.0 0.00 0.00 0.00 76 1018.9
20260510190035 57 212 2.0 6.0 0.00 0.00 0.00 78 1018.9
20260510184548 57 250 1.0 7.0 0.00 0.00 0.00 80 1018.7
20260510183057 56 268 2.0 4.0 0.00 0.00 0.00 82 1019.0
20260510181515 55 198 2.0 7.0 0.00 0.00 0.00 83 1018.8
20260510180029 55 212 2.0 5.0 0.00 0.00 0.00 83 1018.6
20260510174535 55 241 2.0 4.0 0.00 0.00 0.00 86 1018.3
20260510173019 54 266 1.0 4.0 0.00 0.00 0.00 87 1018.5
20260510171523 54 247 2.0 4.0 0.00 0.00 0.00 88 1018.3
20260510170041 53 260 1.0 6.0 0.00 0.00 0.00 88 1018.2
20260510164556 53 245 2.0 5.0 0.00 0.00 0.00 89 1018.5
20260510163123 54 202 1.0 6.0 0.00 0.00 0.00 88 1018.1
20260510163003 54 202 2.0 6.0 0.00 0.00 0.00 88 1018.1
20260510161517 53 209 0.0 3.0 0.00 0.00 0.00 89 1017.7
20260510160023 53 231 2.0 4.0 0.00 0.00 0.00 90 1017.6
20260510154536 53 256 2.0 6.0 0.00 0.00 0.00 90 1017.4
20260510153055 53 236 2.0 6.0 0.00 0.00 0.00 90 1017.7
20260510151504 53 242 3.0 5.0 0.00 0.00 0.00 90 1017.4
20260510150027 53 223 1.0 4.0 0.00 0.00 0.00 90 1017.1
20260510144543 52 193 0.0 3.0 0.00 0.00 0.00 91 1017.1
20260510143051 52 193 2.0 6.0 0.00 0.00 0.00 91 1017.3
20260510141553 52 212 2.0 5.0 0.00 0.00 0.00 91 1017.6
20260510140006 53 327 2.0 4.0 0.00 0.00 0.00 92 1016.9
20260510134521 52 4 0.0 3.0 0.00 0.00 0.00 93 1016.3
20260510133035 52 4 0.0 2.0 0.00 0.00 0.00 93 1016.6
20260510131536 51 4 0.0 2.0 0.00 0.00 0.00 93 1017.2
20260510130041 50 4 0.0 0.0 0.00 0.00 0.00 92 1017.3
20260510124554 50 4 0.0 2.0 0.00 0.00 0.00 91 1017.4
20260510123101 51 4 0.0 2.0 0.00 0.00 0.00 91 1017.2
20260510123007 51 4 0.0 2.0 0.00 0.00 0.00 91 1017.2
20260510121520 50 4 0.0 2.0 0.00 0.00 0.00 90 1017.1
20260510120032 50 4 0.0 1.0 0.00 0.00 0.00 90 1017.2
20260510114544 50 4 0.0 0.0 0.00 0.00 0.00 89 1016.9
20260510113113 51 4 0.0 0.0 0.00 0.00 0.00 88 1016.8
20260510111521 51 4 0.0 0.0 0.00 0.00 0.00 88 1017.2
20260510110029 51 4 0.0 1.0 0.00 0.00 0.00 87 1017.0
20260510104542 52 4 0.0 1.0 0.00 0.00 0.00 86 1016.6
20260510103049 52 4 0.0 3.0 0.00 0.00 0.00 85 1016.4
20260510101534 53 4 0.0 4.0 0.00 0.00 0.00 84 1016.3
20260510100040 53 8 0.0 1.0 0.00 0.00 0.00 85 1016.4
20260510094533 53 8 0.0 1.0 0.00 0.00 0.00 84 1016.1
20260510093017 54 8 0.0 2.0 0.00 0.00 0.00 84 1016.0
20260510091526 54 8 0.0 0.0 0.00 0.00 0.00 83 1015.9
20260510090045 54 8 0.0 1.0 0.00 0.00 0.00 82 1015.8
20260510084553 54 8 0.0 3.0 0.00 0.00 0.00 81 1015.8
20260510083012 54 8 0.0 1.0 0.00 0.00 0.00 81 1015.7
20260510081535 54 8 0.0 0.0 0.00 0.00 0.00 81 1015.5
20260510080010 54 8 0.0 2.0 0.00 0.00 0.00 82 1015.5
20260510074524 54 8 0.0 0.0 0.00 0.00 0.00 83 1015.6
20260510073039 54 8 0.0 0.0 0.00 0.00 0.00 83 1015.5
20260510071544 55 8 0.0 0.0 0.00 0.00 0.00 82 1015.6
20260510070045 55 8 0.0 0.0 0.00 0.00 0.00 81 1015.7
20260510064542 55 8 0.0 0.0 0.00 0.00 0.00 80 1015.6
20260510063011 56 8 0.0 0.0 0.00 0.00 0.00 79 1015.7
20260510061521 56 8 0.0 1.0 0.00 0.00 0.00 78 1015.7
20260510060016 57 8 0.0 1.0 0.00 0.00 0.00 76 1015.6
20260510054525 57 8 0.0 2.0 0.00 0.00 0.00 76 1015.6
20260510053011 58 8 0.0 1.0 0.00 0.00 0.00 75 1015.6
20260510051556 58 8 0.0 3.0 0.00 0.00 0.00 75 1015.7
20260510050034 58 8 0.0 2.0 0.00 0.00 0.00 74 1015.6
20260510044542 58 8 1.0 3.0 0.00 0.00 0.00 73 1015.6
20260510043013 58 8 0.0 2.0 0.00 0.00 0.00 72 1015.5
20260510041556 59 8 1.0 3.0 0.00 0.00 0.00 71 1015.6
20260510040006 59 9 1.0 3.0 0.00 0.00 0.00 70 1015.5
20260510034600 60 10 0.0 4.0 0.00 0.00 0.00 69 1015.4
20260510034502 60 10 0.0 4.0 0.00 0.00 0.00 68 1015.4
20260510033057 60 25 1.0 3.0 0.00 0.00 0.00 67 1015.4
20260510031524 61 354 1.0 5.0 0.00 0.00 0.00 67 1015.4
20260510030043 61 332 1.0 4.0 0.00 0.00 0.00 66 1015.6
20260510024522 62 12 0.0 4.0 0.00 0.00 0.00 64 1015.6
20260510023028 63 14 1.0 8.0 0.00 0.00 0.00 63 1015.8
20260510021536 64 21 0.0 5.0 0.00 0.00 0.00 60 1015.9
20260510020048 65 14 2.0 6.0 0.00 0.00 0.00 57 1016.0
20260510014603 67 15 1.0 6.0 0.00 0.00 0.00 54 1016.1
20260510014502 67 15 2.0 6.0 0.00 0.00 0.00 53 1016.2
20260510013015 69 337 2.0 4.0 0.00 0.00 0.00 51 1016.5
20260510011528 69 58 1.0 4.0 0.00 0.00 0.00 49 1016.6
20260510010042 69 321 0.0 4.0 0.00 0.00 0.00 48 1016.7
20260510004554 68 40 2.0 5.0 0.00 0.00 0.00 50 1016.6
20260510003004 68 315 3.0 5.0 0.00 0.00 0.00 49 1017.0
20260510001521 67 66 2.0 5.0 0.00 0.00 0.00 51 1017.0
20260510000035 69 328 2.0 8.0 0.00 0.00 0.00 49 1017.3
20260509234556 68 4 1.0 6.0 0.00 0.00 0.00 52 1017.4
20260509233104 68 331 1.0 8.0 0.00 0.00 0.00 52 1017.6
20260509231508 68 343 2.0 9.0 0.00 0.00 0.00 51 1017.8
20260509230023 69 36 3.0 8.0 0.00 0.00 0.00 49 1017.9
20260509224534 69 354 2.0 8.0 0.00 0.00 0.00 54 1018.2
20260509223050 69 209 2.0 8.0 0.00 0.00 0.00 54 1018.4
20260509221504 68 286 3.0 7.0 0.00 0.00 0.00 56 1018.5